Location: Robledondo
(40.5771°N, 4.2072°W)
Time: 23:35:15
(UTC+00:00)

Daily predictions for brighter satellites

Satellite Brightness Start Highest point End
(mag) Time Altitude Azimuth Time Altitude Azimuth Time Altitude Azimuth
Cosmos 1777 Rocket 4.3 17:15:32 10° N 17:20:36 44° ENE 17:25:38 10° SE
Cosmos 1939 Rocket 3.1 17:17:43 10° SSE 17:21:42 49° ENE 17:25:42 10° N
Lacrosse 5 2.3 17:18:04 10° NW 17:22:55 42° NE 17:27:45 10° ESE
NOSS 2-1 (C) 3.1 17:24:41 10° SW 17:28:05 69° NW 17:31:18 10° NNE
USA 234 3.5 17:22:13 10° SE 17:28:46 76° SW 17:35:19 10° NW
Okean 3 Rocket 3.6 17:26:20 10° N 17:30:50 61° E 17:35:15 10° SSE
CZ-2D R/B 4.1 17:29:59 10° SE 17:33:21 29° ENE 17:36:42 10° N
Cosmos 1461 3.9 17:30:17 10° SW 17:34:24 45° NW 17:38:24 10° NNE
GEOS 3 Rocket 4.4 17:30:10 10° ESE 17:34:40 30° NE 17:39:08 10° NNW
PSLV R/B 4.2 17:31:53 10° SE 17:35:15 35° ENE 17:38:39 10° N
USA 308 3.3 17:31:12 10° WSW 17:35:24 59° NW 17:39:37 10° NE
Cosmos 1862 3.2 17:32:02 10° N 17:36:00 72° E 17:39:59 10° SSE
NOSS 2-1 (D) 3.5 17:34:02 10° SW 17:37:21 52° NW 17:40:32 10° NNE
SL-4 R/B 3.4 17:33:41 10° WNW 17:38:10 48° SW 17:42:47 10° SSE
Cosmos 2098 Rocket 4.4 17:35:25 10° N 17:41:44 79° W 17:48:59 10° S
CZ-2C R/B 3.7 17:39:24 10° S 17:44:28 58° W 17:49:20 10° NNW
ATLAS 5 CENTAUR R/B 3.6 17:38:55 10° NW 17:44:32 48° WSW 17:51:04 10° S
ATLAS 3B R/B 3.7 17:38:03 10° NW 17:45:11 58° WSW 17:52:33 10° SSE
SJ 16-02 1.4 17:41:09 10° N 17:45:27 52° ENE 17:49:42 10° SSE
BREEZE-M DEB (TANK) 4.2 17:35:38 10° WNW 17:46:22 69° NNE 17:49:47 10° ESE
Cosmos 1842 Rocket 3.6 17:45:59 10° S 17:50:19 59° E 17:54:43 10° NNE
NOAA 6 4.1 17:45:18 10° SSE 17:50:27 87° WSW 17:55:38 10° NNW
CZ-4B R/B 3.6 17:47:35 10° SE 17:52:41 40° ENE 17:57:42 10° N
CORIOLIS 4.1 17:48:09 10° SSE 17:53:31 87° E 17:58:57 10° NNW
ATLAS 5 CENTAUR R/B 4.4 17:50:20 10° NW 17:55:49 16° N 17:58:53 10° NNE
Cosmos 1833 Rocket 3.8 17:51:47 10° SSE 17:56:07 23° E 17:58:47 17° ENE
Cosmos 1606 3.2 18:00:56 10° SSW 18:04:37 61° W 18:08:22 10° N
USA 305 4.2 18:02:42 10° W 18:06:31 32° NNW 18:09:32 15° NNE
USA 276 4.2 18:08:04 10° NW 18:09:57 15° N 18:10:26 14° NNE
Cosmos 2026 Rocket 4.4 18:04:30 10° N 18:10:07 35° ENE 18:15:39 10° SE
Okean O Rocket 2.0 18:07:19 10° SE 18:11:28 42° ENE 18:15:40 10° N
ARGOS 3.4 18:07:27 10° SE 18:12:35 46° ENE 18:17:45 10° N
ATLAS CENTAUR R/B 3.3 18:04:04 10° SSW 18:16:00 70° SE 18:19:16 24° NE
COSMO-SKYMED 1 2.5 18:12:07 10° NNE 18:16:26 64° ESE 18:20:43 10° S
ERBS 2.9 18:15:18 10° WSW 18:18:24 47° NW 18:19:49 27° NNE
CZ-4C R/B 4.1 18:20:21 25° SE 18:20:21 25° SE 18:22:17 10° SSE
Cosmos 1782 3.9 18:16:15 10° SSE 18:18:52 25° ESE 18:18:52 25° ESE
Atlas Centaur 2 3.6 18:18:00 10° SW 18:20:01 14° S 18:22:07 10° SSE
Cosmos 2221 3.5 18:20:29 10° SSW 18:24:35 46° W 18:28:43 10° N
Cosmos 1763 Rocket 3.5 18:20:59 10° S 18:25:53 55° ESE 18:28:44 24° NE
ISS -1.4 18:25:26 10° NW 18:27:18 14° N 18:27:49 14° N
Helios 1B 4.5 18:23:59 10° NNE 18:28:21 89° ESE 18:32:40 10° SSW
Cosmos 1933 3.2 18:27:32 10° S 18:31:32 63° E 18:33:24 30° NNE
deb Chang Zheng 4 3.4 18:27:47 10° SSE 18:32:05 88° ENE 18:36:25 10° NNW
Cosmos 1340 Rocket 2.7 18:29:45 10° N 18:33:50 89° E 18:37:54 10° S
CZ-2C R/B 2.5 18:31:21 10° NNE 18:36:37 85° WNW 18:41:47 10° SSW
Feng Yun 1-1 Rocket 4.4 18:31:56 10° SE 18:37:39 53° ENE 18:43:23 10° N
Meteor 2-21 4.5 18:33:13 10° N 18:39:11 53° ENE 18:45:05 10° SSE
Landsat 5 3.4 18:38:52 21° NNE 18:41:43 90° SW 18:45:48 10° SSW
Cosmos 990 Rocket 3.9 18:37:39 10° NNW 18:42:49 61° ENE 18:46:45 17° SE
CZ-4 R/B 4.3 18:40:49 10° SSE 18:44:55 89° W 18:49:04 10° NNW
Cosmos 1743 Rocket 3.8 18:45:18 10° NNW 18:49:36 66° W 18:53:52 10° S
H-2A R/B 3.1 18:46:13 10° S 18:51:19 47° W 18:56:19 10° NNW
USA 229 DEB 4.1 18:45:43 10° NNW 18:52:50 49° NE 18:54:57 40° E
USA 229 4.1 18:45:49 10° NNW 18:52:55 49° NE 18:54:59 40° E
Cosmos 1092 Rocket 4.0 18:48:06 10° N 18:54:28 84° W 19:00:49 10° S
COSMOS 2455 3.5 18:50:01 10° S 18:54:37 35° SE 18:54:37 35° SE
COSMOS 2406 3.2 18:50:47 10° S 18:56:25 60° ESE 18:57:17 53° ENE
Cosmos 1697 Rocket 3.0 18:51:31 10° NNW 18:56:10 44° NE 18:56:10 44° NE
Cosmos 1980 Rocket 3.9 18:52:38 10° N 18:54:31 18° NNE 18:54:31 18° NNE
ATLAS CENTAUR R/B 4.1 18:55:46 10° WNW 18:57:33 12° NW 18:59:22 10° NNW
Meteor 1-26 Rocket 4.2 18:52:04 10° S 18:57:53 79° E 19:02:35 17° NNE
Cosmos 44 3.1 18:54:58 10° NNW 18:59:25 70° NNE 18:59:25 70° NNE
Cosmos 2082 Rocket 3.3 18:54:58 10° S 18:58:13 29° SE 18:58:13 29° SE
Cosmos 2142 Rocket 4.3 18:55:51 10° S 19:01:53 64° E 19:04:23 36° NNE
Lacrosse 5 3.4 19:01:12 10° WNW 19:05:48 35° SW 19:10:24 10° S
Meteor 2-14 Rocket 4.4 19:03:49 10° N 19:09:58 86° W 19:16:03 10° S
Cosmos 1898 Rocket 3.4 19:06:38 10° NNW 19:11:39 78° NNE 19:11:39 78° NNE
GEOS 3 Rocket 4.3 19:07:19 10° SSE 19:12:27 53° WSW 19:17:34 10° NW
SL-08 RB Rocket 4.1 19:10:31 10° S 19:15:07 62° W 19:19:45 10° NNW
NOAA 15 4.5 19:10:12 10° SSE 19:15:31 88° WSW 19:20:51 10° NNW
Cosmos 1656 4.1 19:10:17 10° NNW 19:15:43 61° WSW 19:21:13 10° S
NOSS 3-1 (A) 4.0 19:08:40 10° NNW 19:16:20 71° NE 19:19:12 46° ESE
NOSS 3-1 (C) 4.3 19:13:26 10° NW 19:21:11 74° WSW 19:30:05 10° SSE
Meteor 2-21 Rocket 4.3 19:16:00 10° N 19:22:11 88° E 19:28:15 10° S
Cosmos 2279 Rocket 3.9 19:20:07 10° S 19:26:21 87° W 19:28:11 49° N
DMSP B5D2-2 4.2 19:29:26 69° W 19:29:26 69° W 19:34:32 10° SSW
Cosmos 1833 Rocket 3.5 19:34:17 10° SW 19:39:40 47° WNW 19:40:32 44° NW
Cosmos 540 Rocket 4.3 19:38:13 10° SW 19:42:22 46° W 19:42:22 46° W
CZ-4C R/B 4.0 19:37:24 10° NNW 19:41:21 29° N 19:41:21 29° N
Okean O Rocket 4.3 19:45:01 10° SW 19:47:59 18° W 19:50:59 10° NW
